Location: Melizzano
(41.1500°N, 14.5000°E)
Time: 09:20:41
(UTC+00:00)

IRIS - Pass Details

Date: 11 May 2021
Orbit: 280 x 2662 km, 41.2° (Epoch: 15 June)

Event Time Altitude Azimuth Distance (km) Brightness Sun altitude
Rises 18:42:14 0° 273° (W) 1,966 8.9 -6.3°
Reaches altitude 10° 18:44:07 10° 273° (W) 1,108 7.5 -6.6°
Maximum altitude 18:46:25 88° 358° (N) 291 3.5 -6.9°
Drops below altitude 10° 18:49:01 10° 93° (E) 1,246 6.1 -7.3°
Enters shadow 18:49:24 - 93° (E) 1,420 6.4 -7.4°
